Torna al catalogo

FENGYUN 1C DEB

AttivoSSO
NORAD 37906·DEBRIS·🇨🇳 China

Lanciato May 10, 1999 da Taiyuan Satellite Launch Center

Loading…

Prossimi Passaggi (prossime 24 ore)

TLE

In scadenzaSource: Space-Track

Epoca: Sep 4, 2026, 09:13 UTC

1 37906U 99025ENF 26247.38455071  .00000123  00000-0  14419-3 0  9992
2 37906  99.5759 297.1806 0163274  50.4474  14.0547 13.81078273631226

Traccia FENGYUN 1C DEB in tempo reale con AllMySat

Download on the App Store